GW5236 Weather Reports


Display with metric or nautical units.
time (UTC)temp
F
wind
direction
speed
MPH
gust
MPH
rain 1hr
in
rain 24hr
in
rain mn
in
humidity
%
barometer
mb
20260505230019 58 156 1.0 3.0 0.05 0.26 0.26 94 1007.6
20260505225509 58 173 1.0 3.0 0.05 0.26 0.26 94 1007.6
20260505225011 58 141 1.0 5.0 0.04 0.25 0.25 93 1007.8
20260505224518 58 166 2.0 7.0 0.05 0.25 0.25 93 1007.9
20260505224004 58 143 3.0 6.0 0.04 0.24 0.24 93 1007.9
20260505223514 59 203 3.0 7.0 0.04 0.24 0.24 93 1007.9
20260505223022 59 175 3.0 7.0 0.04 0.24 0.24 93 1007.9
20260505222507 59 190 3.0 7.0 0.05 0.24 0.24 93 1007.9
20260505221526 59 157 1.0 5.0 0.04 0.23 0.23 92 1008.1
20260505221006 59 189 1.0 5.0 0.04 0.22 0.22 92 1008.1
20260505220504 59 183 2.0 5.0 0.04 0.21 0.21 92 1008.2
20260505220012 59 229 1.0 6.0 0.06 0.21 0.21 92 1008.0
20260505215505 59 178 2.0 8.0 0.08 0.21 0.21 92 1008.0
20260505215006 59 230 2.0 8.0 0.11 0.21 0.21 92 1008.0
20260505214518 59 244 3.0 8.0 0.14 0.20 0.20 91 1007.9
20260505213504 59 171 2.0 6.0 0.18 0.20 0.20 91 1007.8
20260505213019 59 309 2.0 8.0 0.18 0.20 0.20 91 1007.8
20260505212508 59 244 3.0 7.0 0.19 0.19 0.19 91 1007.7
20260505212012 59 202 1.0 7.0 0.19 0.19 0.19 91 1007.6
20260505211524 59 198 1.0 12.0 0.19 0.19 0.19 91 1007.6
20260505210511 59 213 5.0 10.0 0.17 0.17 0.17 89 1007.7
20260505210010 60 215 3.0 11.0 0.15 0.15 0.15 88 1007.8
20260505205509 60 24 3.0 11.0 0.13 0.13 0.13 87 1007.8
20260505205011 61 182 3.0 10.0 0.10 0.10 0.10 84 1007.8
20260505204515 63 284 4.0 9.0 0.06 0.06 0.06 80 1007.7
20260505204006 64 294 2.0 11.0 0.02 0.02 0.02 76 1007.4
20260505203508 65 193 4.0 11.0 0.02 0.02 0.02 72 1007.1
20260505203016 66 197 4.0 10.0 0.02 0.02 0.02 70 1007.1
20260505202509 66 217 5.0 13.0 0.00 0.00 0.00 67 1007.2
20260505202008 66 206 3.0 14.0 0.00 0.00 0.00 67 1007.2
20260505201520 66 196 4.0 14.0 0.00 0.00 0.00 67 1007.3
20260505201008 67 173 3.0 11.0 0.00 0.00 0.00 68 1007.3
20260505200037 67 156 5.0 15.0 0.00 0.00 0.00 66 1007.5
20260505195511 67 183 4.0 11.0 0.00 0.00 0.00 68 1007.5
20260505194514 66 133 4.0 10.0 0.00 0.00 0.00 71 1007.6
20260505194007 65 198 2.0 8.0 0.00 0.00 0.00 73 1007.7
20260505193508 65 243 2.0 9.0 0.00 0.00 0.00 75 1007.8
20260505193018 65 292 3.0 9.0 0.00 0.00 0.00 76 1007.8
20260505192506 65 171 2.0 6.0 0.00 0.00 0.00 75 1007.8
20260505192008 64 227 3.0 7.0 0.00 0.00 0.00 75 1007.9
20260505191520 65 181 1.0 12.0 0.00 0.00 0.00 75 1007.9
20260505191012 65 275 3.0 14.0 0.00 0.00 0.00 73 1008.0
20260505190509 65 140 4.0 14.0 0.00 0.00 0.00 71 1008.2
20260505190006 66 339 6.0 11.0 0.00 0.00 0.00 69 1008.2
20260505185504 66 190 4.0 15.0 0.00 0.00 0.00 68 1008.2
20260505184510 66 157 9.0 12.0 0.00 0.00 0.00 68 1008.2
20260505184007 66 196 6.0 13.0 0.00 0.00 0.00 69 1008.2
20260505183508 66 198 4.0 13.0 0.00 0.00 0.00 69 1008.2
20260505183015 66 171 5.0 9.0 0.00 0.00 0.00 69 1008.2
20260505182507 66 184 4.0 11.0 0.00 0.00 0.00 69 1008.3
20260505182002 66 173 4.0 15.0 0.00 0.00 0.00 69 1008.3
20260505181503 66 202 5.0 15.0 0.00 0.00 0.00 68 1008.3
20260505181003 66 195 5.0 13.0 0.00 0.00 0.00 66 1008.3
20260505180503 67 188 5.0 13.0 0.00 0.00 0.00 67 1008.3
20260505180009 67 207 4.0 11.0 0.00 0.00 0.00 66 1008.3
20260505175004 67 202 4.0 10.0 0.00 0.00 0.00 68 1008.2
20260505174509 67 215 3.0 11.0 0.00 0.00 0.00 67 1008.3
20260505173505 67 330 4.0 15.0 0.00 0.00 0.00 66 1008.2
20260505173014 67 303 6.0 15.0 0.00 0.00 0.00 66 1008.3
20260505172504 67 119 3.0 15.0 0.00 0.00 0.00 65 1008.4
20260505172009 67 154 4.0 14.0 0.00 0.00 0.00 64 1008.4
20260505171522 68 241 5.0 14.0 0.00 0.00 0.00 65 1008.5
20260505171003 68 196 4.0 14.0 0.00 0.00 0.00 65 1008.6
20260505170502 68 236 4.0 14.0 0.00 0.00 0.00 64 1008.6
20260505170012 68 191 5.0 12.0 0.00 0.00 0.00 63 1008.5
20260505165503 68 192 2.0 15.0 0.00 0.00 0.00 66 1008.6
20260505165006 68 190 6.0 14.0 0.00 0.00 0.00 64 1008.5
20260505164505 69 211 5.0 14.0 0.00 0.00 0.00 63 1008.6
20260505164004 69 217 6.0 12.0 0.00 0.00 0.00 61 1008.5
20260505163504 69 232 4.0 11.0 0.00 0.00 0.00 62 1008.5
20260505163010 69 189 4.0 12.0 0.00 0.00 0.00 62 1008.6
20260505162505 69 284 3.0 12.0 0.00 0.00 0.00 64 1008.5
20260505162007 69 193 4.0 19.0 0.00 0.00 0.00 62 1008.5
20260505161516 69 168 7.0 19.0 0.00 0.00 0.00 62 1008.6
20260505161006 69 164 4.0 12.0 0.00 0.00 0.00 64 1008.7
20260505160508 68 200 4.0 12.0 0.00 0.00 0.00 64 1008.8
20260505153010 68 209 8.0 16.0 0.00 0.00 0.00 65 1008.9
20260505152505 67 279 4.0 13.0 0.00 0.00 0.00 66 1008.8
20260505152008 67 153 5.0 11.0 0.00 0.00 0.00 69 1008.6
20260505151516 66 111 3.0 13.0 0.00 0.00 0.00 69 1008.5
20260505151004 66 290 5.0 16.0 0.00 0.00 0.00 68 1008.3
20260505150505 66 201 6.0 16.0 0.00 0.00 0.00 69 1008.4
20260505140507 63 172 5.0 11.0 0.00 0.00 0.00 76 1007.3
20260505125008 60 229 3.0 9.0 0.00 0.00 0.00 83 1007.8
20260505124522 59 215 3.0 9.0 0.00 0.00 0.00 83 1007.9
20260505124009 59 210 4.0 8.0 0.00 0.00 0.00 83 1007.9
20260505123508 58 194 3.0 7.0 0.00 0.00 0.00 84 1007.8
20260505123022 58 161 3.0 7.0 0.00 0.00 0.00 84 1007.8
20260505122509 58 165 2.0 5.0 0.00 0.00 0.00 84 1007.8
20260505122003 58 175 2.0 7.0 0.00 0.00 0.00 83 1007.6
20260505121511 58 198 2.0 11.0 0.00 0.00 0.00 83 1007.7
20260505121008 58 218 4.0 10.0 0.00 0.00 0.00 83 1007.3
20260505120504 58 173 4.0 9.0 0.00 0.00 0.00 83 1007.3
20260505120017 58 196 2.0 7.0 0.00 0.00 0.00 84 1007.3
20260505115507 58 277 2.0 11.0 0.00 0.00 0.00 84 1007.2
20260505115010 57 277 3.0 12.0 0.00 0.00 0.00 84 1006.9
20260505114519 57 250 4.0 12.0 0.00 0.00 0.00 84 1006.6
20260505114008 57 168 7.0 17.0 0.00 0.00 0.00 84 1006.0
20260505113507 57 182 6.0 17.0 0.00 0.00 0.00 84 1005.6
20260505113021 57 166 7.0 17.0 0.00 0.00 0.00 84 1005.2
20260505112514 58 191 7.0 17.0 0.00 0.00 0.00 84 1005.0
20260505112011 58 254 7.0 21.0 0.00 0.00 0.00 83 1005.1
20260505111534 58 194 7.0 21.0 0.00 0.00 0.00 83 1005.1
20260505111003 58 198 8.0 21.0 0.00 0.00 0.00 83 1005.2
20260505110504 57 181 11.0 21.0 0.00 0.00 0.00 84 1005.2
20260505102008 57 202 4.0 10.0 0.00 0.00 0.00 84 1006.6
20260505101526 57 185 4.0 10.0 0.00 0.00 0.00 83 1006.6
20260505101010 57 188 3.0 7.0 0.00 0.00 0.00 82 1006.8
20260505100509 58 179 3.0 9.0 0.00 0.00 0.00 81 1006.9
20260505100004 58 150 3.0 9.0 0.00 0.00 0.00 81 1007.3
20260505095502 59 164 2.0 9.0 0.00 0.00 0.00 79 1007.2
20260505095004 59 317 3.0 9.0 0.00 0.00 0.00 78 1007.3
20260505094504 59 222 4.0 10.0 0.00 0.00 0.00 76 1007.1
20260505094003 59 171 5.0 10.0 0.00 0.00 0.00 76 1007.0
20260505093503 59 161 2.0 7.0 0.00 0.00 0.00 77 1007.2
20260505093004 60 321 2.0 7.0 0.00 0.00 0.00 76 1007.1
20260505092502 60 338 2.0 7.0 0.00 0.00 0.00 76 1006.9
20260505092004 60 290 2.0 9.0 0.00 0.00 0.00 76 1006.7
20260505091504 60 266 2.0 9.0 0.00 0.00 0.00 76 1006.8
20260505090503 60 288 3.0 10.0 0.00 0.00 0.00 75 1006.8
20260505085504 60 279 3.0 11.0 0.00 0.00 0.00 75 1006.7
20260505085004 61 293 5.0 11.0 0.00 0.00 0.00 75 1006.7
20260505084505 61 272 3.0 11.0 0.00 0.00 0.00 74 1006.8
20260505084003 61 244 3.0 14.0 0.00 0.00 0.00 74 1006.6
20260505083503 61 154 5.0 14.0 0.00 0.00 0.00 73 1006.7
20260505081507 64 294 2.0 8.0 0.00 0.00 0.00 66 1006.3
20260505075502 64 196 4.0 11.0 0.00 0.00 0.00 66 1005.9
20260505075004 63 189 3.0 7.0 0.00 0.00 0.00 67 1005.8
20260505074508 63 220 3.0 9.0 0.00 0.00 0.00 67 1005.7
20260505074004 63 142 3.0 9.0 0.00 0.00 0.00 67 1005.7
20260505073504 63 217 3.0 15.0 0.00 0.00 0.00 68 1005.6
20260505073010 63 280 3.0 15.0 0.00 0.00 0.00 69 1005.7
20260505072505 62 215 5.0 11.0 0.00 0.00 0.00 70 1005.7
20260505072003 62 148 2.0 7.0 0.00 0.00 0.00 70 1005.5
20260505070006 62 192 3.0 9.0 0.00 0.00 0.00 70 1005.3
20260505065002 62 196 4.0 10.0 0.00 0.00 0.00 70 1005.4
20260505064514 62 142 4.0 10.0 0.00 0.00 0.00 70 1005.3
20260505064002 62 175 4.0 10.0 0.00 0.00 0.00 70 1005.2
20260505063502 62 140 3.0 9.0 0.00 0.00 0.00 70 1005.2
20260505062502 62 167 2.0 9.0 0.00 0.00 0.00 69 1004.9
20260505062004 62 165 2.0 10.0 0.00 0.00 0.00 69 1005.0
20260505061511 63 188 3.0 10.0 0.00 0.00 0.00 69 1005.0
20260505061008 63 182 4.0 7.0 0.00 0.00 0.00 69 1004.9
20260505060504 63 194 3.0 9.0 0.00 0.00 0.00 68 1004.9
20260505055501 63 170 4.0 15.0 0.00 0.00 0.00 67 1004.9
20260505054002 64 158 4.0 10.0 0.00 0.00 0.00 66 1005.0
20260505053009 64 202 5.0 11.0 0.00 0.00 0.00 66 1005.1
20260505052506 64 178 4.0 11.0 0.00 0.00 0.00 66 1005.1
20260505052004 64 187 5.0 11.0 0.00 0.00 0.00 66 1005.1
20260505051523 64 195 5.0 10.0 0.00 0.00 0.00 66 1005.1
20260505051008 64 202 4.0 12.0 0.00 0.00 0.00 67 1005.1
20260505050505 64 204 6.0 12.0 0.00 0.00 0.00 67 1005.3
20260505041516 63 178 3.0 8.0 0.00 0.00 0.00 67 1005.6
20260505041004 63 188 2.0 8.0 0.00 0.00 0.00 67 1005.6
20260505040506 63 190 3.0 8.0 0.00 0.00 0.00 66 1005.7
20260505040028 64 187 3.0 12.0 0.00 0.00 0.00 66 1005.7
20260505035505 64 197 4.0 12.0 0.00 0.00 0.00 65 1005.7
20260505035004 64 181 3.0 7.0 0.00 0.00 0.00 65 1005.7
20260505034516 64 130 3.0 8.0 0.00 0.00 0.00 65 1005.7
20260505034002 64 107 3.0 8.0 0.00 0.00 0.00 64 1005.7
20260505033011 64 184 3.0 7.0 0.00 0.00 0.00 64 1005.8
20260505031515 65 194 2.0 7.0 0.00 0.00 0.00 63 1005.7
20260505031007 65 163 3.0 7.0 0.00 0.00 0.00 63 1005.8
20260505030506 65 215 2.0 7.0 0.00 0.00 0.00 63 1005.8
20260505030024 65 127 3.0 6.0 0.00 0.00 0.00 63 1005.8
20260505025507 65 193 2.0 6.0 0.00 0.00 0.00 63 1005.7
20260505025006 65 128 2.0 6.0 0.00 0.00 0.00 63 1005.7
20260505024514 65 153 2.0 8.0 0.00 0.00 0.00 64 1005.6
20260505024004 65 196 2.0 9.0 0.00 0.00 0.00 64 1005.5
20260505023504 65 171 3.0 9.0 0.00 0.00 0.00 64 1005.5
20260505023009 65 170 3.0 7.0 0.00 0.00 0.00 64 1005.5
20260505022002 66 177 3.0 7.0 0.00 0.00 0.00 64 1005.5
20260505021515 66 150 3.0 9.0 0.00 0.00 0.00 64 1005.6
20260505015506 66 121 2.0 9.0 0.00 0.00 0.00 63 1005.6
20260505015005 67 136 4.0 9.0 0.00 0.00 0.00 63 1005.6
20260505014514 66 136 4.0 8.0 0.00 0.00 0.00 63 1005.5
20260505014008 66 216 3.0 8.0 0.00 0.00 0.00 63 1005.5
20260505013508 66 182 3.0 10.0 0.00 0.00 0.00 63 1005.5
20260505013016 66 169 3.0 10.0 0.00 0.00 0.00 62 1005.4
20260505012504 66 190 2.0 10.0 0.00 0.00 0.00 63 1005.3
20260505012008 66 153 2.0 5.0 0.00 0.00 0.00 62 1005.3
20260505011511 67 169 2.0 10.0 0.00 0.00 0.00 62 1005.2
20260505010012 67 136 3.0 7.0 0.00 0.00 0.00 61 1005.0
20260505005006 67 184 1.0 6.0 0.00 0.00 0.00 61 1005.2
20260505004518 67 164 2.0 6.0 0.00 0.00 0.00 60 1005.2
20260505004009 67 194 1.0 6.0 0.00 0.00 0.00 60 1005.2
20260505003505 67 184 2.0 6.0 0.00 0.00 0.00 59 1005.2
20260505003006 68 163 2.0 8.0 0.00 0.00 0.00 58 1005.2
20260505001508 68 191 3.0 7.0 0.00 0.00 0.00 56 1005.2
20260505000503 69 155 4.0 8.0 0.00 0.00 0.00 56 1005.2
20260505000013 69 145 3.0 7.0 0.00 0.00 0.00 56 1005.2
20260504235507 69 146 4.0 10.0 0.00 0.00 0.00 55 1005.2
20260504234515 70 200 4.0 14.0 0.00 0.00 0.00 55 1005.3
20260504234008 70 205 4.0 10.0 0.00 0.00 0.00 56 1005.4
20260504233507 70 202 3.0 11.0 0.00 0.00 0.00 56 1005.5
20260504233019 70 185 4.0 11.0 0.00 0.00 0.00 56 1005.4
20260504232507 69 157 3.0 7.0 0.00 0.00 0.00 56 1005.4
20260504232003 69 163 4.0 7.0 0.00 0.00 0.00 56 1005.5
20260504231506 69 199 3.0 15.0 0.00 0.00 0.00 56 1005.6
20260504231004 69 149 3.0 15.0 0.00 0.00 0.00 56 1005.5